Вернуться в каталог

STARLINK-11305

АктивенСвязьVLEO
NORAD 61247·PAYLOAD·🇺🇸 United States

Запущен Sep 25, 2024 с Vandenberg Space Force Base

Loading…

Ближайшие Пролёты (ближайшие 24 часа)

TLE

СвежийSource: CelesTrak SupGP

Эпоха: Sep 15, 2026, 03:32 UTC

1 61247C 24175E   26258.14770833 -.00064867  00000+0 -53402-3 0  2582
2 61247  53.1570 202.1032 0001242  83.4055 354.0233 15.69755568    15

Отслеживайте STARLINK-11305 в реальном времени с AllMySat

Download on the App Store